Flag for U.S.A. Weather past 2 weeks in Hopkinsville, Kentucky, U.S.A.

Now
37 °F

Low clouds.


Feels Like: 33 °F
Forecast: 33 / 44 °F
Wind: 6 mph from North

Location: Fort Campbell U. S. Army Airfield

Current Time: Dec 28, 2014 at 7:49:53 AM

Latest Report: Dec 28, 2014 at 7:00 AM


Visibility: 10 mi

Pressure: 30.16 "Hg

Humidity: 93%

Dew point: 36 °F

Location of HopkinsvilleLocation

Historic Weather in Hopkinsville — Graph

°F

Hopkinsville temperature yesterday

Maximum temperature yesterday: 50 °F (at 10:58 AM)
Minimum temperature yesterday: 45 °F (at 11:01 PM)
Average temperature yesterday: 48 °F

Past Weeks' High & Low Weather Summary

 TemperatureHumidityPressure
High57 °F (Dec 15, 10:58 PM)100% (Dec 22, 10:59 PM)30.37 "Hg (Dec 22, 10:59 PM)
Low24 °F (Dec 21, 6:58 AM)47% (Dec 21, 2:58 PM)29.56 "Hg (Dec 24, 4:58 AM)
Average43 °F83%30.08 "Hg
* Reported Dec 13 5:58 AM — Dec 28 5:58 AM, Hopkinsville, Weather by CustomWeather, © 2014

Note: Actual official high and low records may vary slightly from our data, if they occured in-between our weather recording intervals... More about our weather records

Advertising

Hopkinsville weather history for previous 24 hours

 ConditionsComfort  
Time TempWeatherWind HumidityBarometerVisibility
5:58 AM
Dec 28
38 °FOvercast.7 mph88%30.17 "Hg10 mi
4:59 AM37 °FLow clouds.10 mph93%30.13 "Hg10 mi
4:03 AM39 °FLight rain. Low clouds.8 mph93%30.14 "Hg9 mi
3:58 AM38 °FLow clouds.10 mph95%30.14 "Hg9 mi
2:58 AM40 °FLow clouds.10 mph94%30.14 "Hg8 mi
1:58 AM43 °FLight rain. Low clouds.14 mph95%30.10 "Hg10 mi
12:59 AM45 °FMostly cloudy.5 mph100%30.08 "Hg10 mi
12:58 AM45 °FDrizzle. Mostly cloudy.5 mph97%30.09 "Hg10 mi
12:04 AM45 °FOvercast.9 mph100%30.07 "Hg10 mi
11:58 PM
Dec 27
45 °FDrizzle. Overcast.8 mph96%30.09 "Hg8 mi
11:01 PM45 °FLight rain. Mostly cloudy.6 mph100%30.11 "Hg10 mi
9:58 PM49 °FDrizzle. Fog.5 mph99%30.12 "Hg6 mi
9:01 PM48 °FFog.No wind100%30.11 "Hg1 mi
8:58 PM48 °FFog.No wind99%30.12 "Hg2 mi
7:58 PM49 °FLow clouds.2 mph97%30.11 "Hg7 mi
7:03 PM48 °FLow clouds.5 mph100%30.09 "Hg10 mi
6:58 PM49 °FLow clouds.5 mph97%30.10 "Hg10 mi
5:58 PM49 °FFog.6 mph98%30.11 "Hg5 mi
5:03 PM48 °FFog.6 mph100%30.11 "Hg5 mi
3:58 PM50 °FLow clouds.3 mph97%30.14 "Hg9 mi
3:03 PM50 °FRain. Fog.No wind94%30.12 "Hg3 mi
3:01 PM50 °FLight rain. Fog.No wind94%30.12 "Hg2 mi
1:58 PM50 °FLight rain. Mostly cloudy.2 mph96%30.12 "Hg7 mi
12:58 PM50 °FLight rain. Fog.2 mph89%30.14 "Hg5 mi
11:59 AM50 °FDrizzle. Low clouds.5 mph88%30.14 "Hg4 mi
11:58 AM50 °FLow clouds.5 mph85%30.15 "Hg4 mi
10:58 AM50 °FOvercast.3 mph82%30.19 "Hg10 mi
9:58 AM49 °FFog.5 mph89%30.21 "Hg4 mi
8:58 AM47 °FOvercast.6 mph92%30.22 "Hg10 mi
7:58 AM47 °FOvercast.2 mph92%30.22 "Hg10 mi
Weather by CustomWeather, © 2014

See weather overviewHow to use our weather pages